Location: Krakow
(50.0830°N, 19.9170°E)
Time: 09:07:23
(UTC+02:00)

Vanguard 3 - Pass Details

Date: 09 February 2023
Orbit: 508 x 3249 km, 33.4° (Epoch: 31 March)

Event Time Altitude Azimuth Distance (km) Brightness Sun altitude
Rises 21:31:00 0° 261° (W) 4,784 11.5 -44.1°
Reaches altitude 10° 21:34:28 10° 248° (WSW) 4,182 11.0 -44.5°
Enters shadow 21:40:38 24° 216° (SW) 3,766 10.4 -45.3°
Maximum altitude 21:43:36 26° 199° (SSW) 3,900 - -45.7°
Drops below altitude 10° 21:56:14 10° 152° (SSE) 5,885 - -47.1°
Sets 22:02:29 0° 142° (SE) 7,124 - -47.8°
